Погода в Снегуровке

Россия / Приморский край     44°04′58″N   132°35′03″E
темп.,
°C
ветер,
м/с
пор.,
м/с
влажн.,
%
обл.,
%
осадки,
мм/ч
давл.,
гПа
погр.,
м
8 мая, сб
сб801:00+9юз4893100 5.2 990587
04:00+9зюз61288100 7.1 992904
07:00+9зюз5118616 0.0 995542
10:00+13ююз566571 0.0 996708
13:00+15ю61348100 0.0 9951324
16:00+16ююз51154100 0.0 9921165
19:00+13ю61361100 0.0 9911227
22:00+10ююз51191100 2.9 990944
9 мая, вс
вс901:00+8ююз4892100 3.6 991447
04:00+8ююз4890100 4.3 990534
07:00+7юз4794100 0.7 992545
10:00+7ююз3492100 2.6 993471
13:00+9зюз5786100 1.3 9941337
16:00+6з5591100 2.2 9961002
19:00+7сз379199 0.2 1000561
22:00+6сз51192100 0.3 1003648
10 мая, пн
пн1001:00+6зсз51093100 0.3 1005731
04:00+6сз41094100 0.5 1006717
07:00+6сз3995100 0.3 1008718
10:00+7сз3794100 0.4 1010826
13:00+7сз3589100 0.1 1011695
16:00+8ссз2490100 0.4 1012512
19:00+7с2594100 0.3 1013335
22:00+7с1194100 0.3 101421
11 мая, вт
вт1101:00+6сз1295100 0.0 101563
04:00+6сз119596 0.0 101639
07:00+6ссз139296 0.0 1017225
10:00+9св248099 0.0 1018684
13:00+12св2262100 0.2 10181407
16:00+13всв125812 0.3 10171202
19:00+13вюв23656 0.0 1017175
22:00+7ююз357961 0.0 101880
12 мая, ср
ср1201:00+5ю2390100 0.0 101975
04:00+5ююв2292100 0.0 101836
07:00+6ююв2684100 0.0 1018292
10:00+11ю71263100 0.0 1017957
13:00+12ююз71362100 0.0 10161100
16:00+12ююз81463100 0.0 10141024
19:00+10ююз71671100 0.1 1014930
22:00+8ю71781100 0.5 1014758